Cook, MN

12:50 AM CDT on August 27, 2016 (GMT -0500)
Cook Municipal

Weather History for KCQM - October, 2012

Change the Weather History Date:

Monday, October 8, 2012

  Actual Average Record
Temperature  
Mean Temperature 42 °F -  
Max Temperature 46 °F 54 °F 78 °F (2003)
Min Temperature 37 °F 34 °F 21 °F (2000)
Degree Days  
Heating Degree Days 24    
Moisture  
Dew Point 29 °F    
Average Humidity 67    
Maximum Humidity 100    
Minimum Humidity 42    
Precipitation  
Precipitation 0.08 in - - ()
Sea Level Pressure  
Sea Level Pressure 29.62 in    
Wind  
Wind Speed 6 mph (South)    
Max Wind Speed 10 mph    
Max Gust Speed 18 mph    
Visibility 9 miles    
Events Rain    
Averages and records for this station are not official NWS values.
T = Trace of Precipitation, MM = Missing Value Source: NWS Daily Summary

Daily Weather History Graph

Daily Weather History Graph

Search for Another Location

Airport or City:

Trip Planner

Search our weather history database for the weather conditions in past years. The results will help you decide how hot, cold, wet, or windy it might be!

Date:

Astronomy

Oct. 08, 2012 Rise Set
Actual Time 7:20 AM CDT 6:34 PM CDT
Civil Twilight 6:49 AM CDT 7:05 PM CDT
Nautical Twilight 6:13 AM CDT 7:41 PM CDT
Astronomical Twilight 5:37 AM CDT 8:17 PM CDT
Moon No Moon Rise 2:51 PM CDT (10/8)
Length of Visible Light 12h 16m
Length of Day
11h 14m
Last Quarter, 46% of the Moon is Illuminated
Oct 8
Last Quarter
Oct 15
New
Oct 21
First Quarter
Oct 29
Full
Nov 6
Last Quarter

Hourly Weather History & Observations

Time (CDT) Temp. Windchill Dew Point Humidity Pressure Visibility Wind Dir Wind Speed Gust Speed Precip Events Conditions
12:16 AM 41.0 °F 37.1 °F 19.4 °F 42% 29.77 in 10.0 mi South 5.8 mph - N/A   Overcast
12:36 AM 41.0 °F 38.0 °F 19.4 °F 42% 29.76 in 10.0 mi South 4.6 mph - N/A   Overcast
12:57 AM 41.0 °F 38.0 °F 19.4 °F 42% 29.76 in 10.0 mi South 4.6 mph - N/A   Overcast
1:16 AM 41.0 °F 38.0 °F 19.4 °F 42% 29.76 in 10.0 mi South 4.6 mph - N/A   Overcast
1:37 AM 41.0 °F 37.1 °F 19.4 °F 42% 29.75 in 10.0 mi South 5.8 mph - N/A   Overcast
1:57 AM 39.2 °F 35.0 °F 19.4 °F 45% 29.74 in 10.0 mi South 5.8 mph - N/A   Overcast
2:16 AM 39.2 °F 35.0 °F 19.4 °F 45% 29.74 in 10.0 mi South 5.8 mph - N/A   Mostly Cloudy
2:37 AM 39.2 °F 35.9 °F 19.4 °F 45% 29.74 in 10.0 mi South 4.6 mph - N/A   Mostly Cloudy
2:57 AM 39.2 °F 33.6 °F 19.4 °F 45% 29.73 in 10.0 mi South 8.1 mph - N/A   Overcast
3:16 AM 39.2 °F 34.2 °F 19.4 °F 45% 29.72 in 10.0 mi South 6.9 mph - N/A   Overcast
3:37 AM 39.2 °F 33.6 °F 19.4 °F 45% 29.71 in 10.0 mi South 8.1 mph - N/A   Overcast
3:56 AM 39.2 °F 33.0 °F 19.4 °F 45% 29.70 in 10.0 mi South 9.2 mph - N/A   Mostly Cloudy
4:17 AM 39.2 °F 34.2 °F 19.4 °F 45% 29.70 in 10.0 mi South 6.9 mph - N/A   Scattered Clouds
4:37 AM 39.2 °F 35.9 °F 21.2 °F 49% 29.69 in 10.0 mi South 4.6 mph - N/A   Scattered Clouds
4:56 AM 39.2 °F 33.6 °F 21.2 °F 49% 29.69 in 10.0 mi South 8.1 mph - N/A   Clear
5:17 AM 39.2 °F 35.0 °F 21.2 °F 49% 29.69 in 10.0 mi South 5.8 mph - N/A   Scattered Clouds
5:37 AM 39.2 °F 35.9 °F 21.2 °F 49% 29.68 in 10.0 mi SSW 4.6 mph - N/A   Mostly Cloudy
5:57 AM 39.2 °F 34.2 °F 21.2 °F 49% 29.68 in 10.0 mi SSW 6.9 mph - N/A   Mostly Cloudy
6:16 AM 39.2 °F 35.9 °F 21.2 °F 49% 29.68 in 10.0 mi South 4.6 mph - N/A   Mostly Cloudy
6:36 AM 37.4 °F 34.9 °F 21.2 °F 52% 29.68 in 10.0 mi South 3.5 mph - N/A   Mostly Cloudy
6:57 AM 37.4 °F 34.9 °F 21.2 °F 52% 29.67 in 10.0 mi South 3.5 mph - N/A   Overcast
7:16 AM 37.4 °F 34.9 °F 21.2 °F 52% 29.67 in 10.0 mi South 3.5 mph - N/A   Mostly Cloudy
7:37 AM 37.4 °F 34.9 °F 23.0 °F 56% 29.67 in 10.0 mi SSE 3.5 mph - N/A   Mostly Cloudy
7:57 AM 37.4 °F - 23.0 °F 56% 29.67 in 10.0 mi Calm Calm - N/A   Scattered Clouds
8:16 AM 37.4 °F 34.9 °F 23.0 °F 56% 29.66 in 10.0 mi SE 3.5 mph - N/A   Clear
8:37 AM 37.4 °F 33.8 °F 23.0 °F 56% 29.66 in 10.0 mi SSE 4.6 mph - N/A   Scattered Clouds
8:57 AM 39.2 °F 37.0 °F 24.8 °F 56% 29.65 in 10.0 mi SSE 3.5 mph - N/A   Scattered Clouds
9:16 AM 39.2 °F 35.9 °F 24.8 °F 56% 29.64 in 10.0 mi SSE 4.6 mph - N/A   Mostly Cloudy
9:37 AM 41.0 °F 39.0 °F 24.8 °F 53% 29.63 in 10.0 mi SSE 3.5 mph - N/A   Mostly Cloudy
9:57 AM 42.8 °F 40.1 °F 24.8 °F 49% 29.63 in 10.0 mi SSE 4.6 mph - N/A   Scattered Clouds
10:16 AM 42.8 °F 38.6 °F 24.8 °F 49% 29.62 in 10.0 mi South 6.9 mph - N/A   Clear
10:37 AM 42.8 °F - 24.8 °F 49% 29.61 in 10.0 mi Calm Calm - N/A   Scattered Clouds
10:56 AM 42.8 °F 38.6 °F 26.6 °F 53% 29.61 in 10.0 mi SE 6.9 mph - N/A   Scattered Clouds
11:17 AM 44.6 °F 40.2 °F 26.6 °F 49% 29.60 in 10.0 mi SE 8.1 mph - N/A   Scattered Clouds
11:37 AM 44.6 °F 41.4 °F 26.6 °F 49% 29.59 in 10.0 mi SSE 5.8 mph - N/A   Scattered Clouds
11:56 AM 46.4 °F 42.4 °F 28.4 °F 50% 29.58 in 10.0 mi SSE 8.1 mph - N/A   Scattered Clouds
12:17 PM 46.4 °F 42.4 °F 30.2 °F 53% 29.58 in 10.0 mi SE 8.1 mph - N/A   Light Drizzle
12:56 PM 42.8 °F 38.6 °F 35.6 °F 76% 29.56 in 10.0 mi SE 6.9 mph - N/A Rain Rain
1:17 PM 42.8 °F 39.3 °F 37.4 °F 81% 29.55 in 10.0 mi SSE 5.8 mph - N/A Rain Light Rain
1:36 PM 42.8 °F 39.3 °F 37.4 °F 81% 29.54 in 10.0 mi SSE 5.8 mph - 0.01 in Rain Rain
1:57 PM 42.8 °F 40.1 °F 37.4 °F 81% 29.54 in 10.0 mi SSE 4.6 mph - N/A Rain Rain
2:17 PM 41.0 °F 37.1 °F 37.4 °F 87% 29.52 in 10.0 mi SE 5.8 mph 9.2 mph 0.01 in Rain Light Rain
2:36 PM 41.0 °F 36.4 °F 37.4 °F 87% 29.51 in 7.0 mi SE 6.9 mph - 0.02 in Rain Heavy Rain
2:57 PM 41.0 °F 35.8 °F 37.4 °F 87% 29.51 in 10.0 mi SSE 8.1 mph - N/A Rain Light Rain
3:17 PM 41.0 °F 39.0 °F 39.2 °F 93% 29.52 in 7.0 mi South 3.5 mph - 0.01 in Rain Rain
3:36 PM 41.0 °F 37.1 °F 37.4 °F 87% 29.51 in 5.0 mi SSE 5.8 mph - 0.02 in Rain Rain
3:57 PM 41.0 °F 35.2 °F 37.4 °F 87% 29.51 in 10.0 mi SSE 9.2 mph - N/A Rain Rain
4:17 PM 39.2 °F 32.5 °F 37.4 °F 93% 29.52 in 10.0 mi South 10.4 mph 18.4 mph 0.01 in Rain Rain
4:36 PM 39.2 °F 34.2 °F 37.4 °F 93% 29.52 in 10.0 mi South 6.9 mph - 0.02 in Rain Light Rain
4:57 PM 39.2 °F 35.0 °F 37.4 °F 93% 29.51 in 10.0 mi South 5.8 mph - N/A Rain Rain
5:16 PM 39.2 °F 35.0 °F 37.4 °F 93% 29.51 in 7.0 mi South 5.8 mph - N/A   Drizzle
5:37 PM 39.2 °F 35.9 °F 37.4 °F 93% 29.51 in 10.0 mi South 4.6 mph - N/A   Drizzle
5:57 PM 39.2 °F 34.2 °F 39.2 °F 100% 29.51 in 4.0 mi SSW 6.9 mph - N/A   Light Drizzle
6:16 PM 39.2 °F 35.0 °F 39.2 °F 100% 29.51 in 2.0 mi SSW 5.8 mph - N/A   Drizzle
6:37 PM 41.0 °F 37.1 °F 39.2 °F 93% 29.51 in 7.0 mi SSW 5.8 mph - N/A   Light Drizzle
6:57 PM 41.0 °F 35.8 °F 39.2 °F 93% 29.51 in 5.0 mi South 8.1 mph - N/A   Overcast
7:37 PM 41.0 °F 37.1 °F 39.2 °F 93% 29.53 in 7.0 mi WSW 5.8 mph - 0.01 in   Overcast
8:16 PM 42.8 °F 38.0 °F 41.0 °F 93% 29.54 in 10.0 mi WSW 8.1 mph - N/A   Overcast
8:37 PM 42.8 °F 38.0 °F 41.0 °F 93% 29.55 in 10.0 mi West 8.1 mph - N/A   Overcast
9:16 PM 42.8 °F 37.0 °F 39.2 °F 87% 29.56 in 10.0 mi West 10.4 mph - N/A   Overcast
9:37 PM 41.0 °F 35.8 °F 39.2 °F 93% 29.57 in 10.0 mi West 8.1 mph - N/A   Overcast
9:57 PM 41.0 °F 35.8 °F 39.2 °F 93% 29.57 in 10.0 mi West 8.1 mph - N/A   Overcast
10:16 PM 41.0 °F 35.8 °F 39.2 °F 93% 29.58 in 10.0 mi West 8.1 mph - N/A   Overcast
10:57 PM 41.0 °F 37.1 °F 37.4 °F 87% 29.58 in 10.0 mi West 5.8 mph - N/A   Overcast
11:37 PM 39.2 °F 34.2 °F 37.4 °F 93% 29.59 in 10.0 mi WSW 6.9 mph - N/A   Overcast
11:56 PM 39.2 °F 35.9 °F 37.4 °F 93% 29.59 in 10.0 mi WSW 4.6 mph - N/A   Overcast